User: anonymous   Login
Location: Muenchen
(48.1800°N, 11.5800°E)
Time: 07:02:16
(UTC+02:00)
Language:

Cosmos 2233 Rocket - Orbit

View from above orbital plane
View from above orbital plane
View from above satellite
View from above satellite

Ground track
Ground track

The orbit data is extracted from the following two-line orbital elements,

1 22488U 93008B   15109.52984514  .00000001  00000-0 -13987-4 0  9992
2 22488 082.9399 306.0512 0024086 278.5746 110.2948 13.77664779115539
Epoch (UTC): 19 April 2015 12:42:58
Eccentricity: 0.0024086
inclination: 82.9399°
perigee height: 954 km
apogee height: 990 km
right ascension of ascending node: 306.0512°
argument of perigee: 278.5746°
revolutions per day: 13.77664779
mean anomaly at epoch: 110.2948°
orbit number at epoch: 11553

The dashed part of the orbit path shows where the satellite is in the earth's shadow,  

DLR